Location: Pella
(41.4080°N, 92.9160°W)
Time: 23:14:33
(UTC-06:00)

ATLAS 5 CENTAUR R/B - Visible Passes

Search period start: 25 November 2014 00:00
Search period end: 05 December 2014 00:00
Orbit: 316 x 330 km, 35.7° (Epoch: 25 November)

Date Brightness Start Highest point End Pass type
(mag) Time Alt. Az. Time Alt. Az. Time Alt. Az.
01 Dec 3.6 06:37:40 10° SSW 06:39:15 14° SSE 06:40:50 10° SE visible
03 Dec 3.5 05:28:33 13° S 05:29:03 13° SSE 05:30:27 10° SE visible
04 Dec 2.9 05:40:13 17° S 05:40:51 19° S 05:42:51 10° ESE visible
